Location: Napier
(39.4830°S, 176.9170°E)
Time: 01:58:47
(UTC+12:00)

Cosmos 1656 Rocket - Pass Details

Date: 15 August 2020
Orbit: 795 x 847 km, 71.1° (Epoch: 19 September)

Event Time Altitude Azimuth Distance (km) Brightness Sun altitude
Rises 18:31:31 0° 7° (N) 3,390 6.9 -11.6°
Reaches altitude 10° 18:34:12 10° 17° (NNE) 2,467 6.0 -12.1°
Maximum altitude 18:39:07 31° 77° (ENE) 1,462 4.4 -13.0°
Enters shadow 18:43:35 12° 134° (SE) 2,340 5.5 -13.9°
